Regional Weather Roundup
Issued by NWS

Home | Current Version | Previous Version | Text Only | Print | Product List | Glossary Off
Versions: 1 2 3 4 5 6 7 8 9 10 11 12 13 14 15 16 17 18 19 20 21 22 23 24 25 26 27 28 29 30 31 32 33 34 35 36 37 38 39 40 41 42 43 44 45 46 47 48 49 50

000
ASUS43 KLMK 230802
RWRKY
KENTUCKY REGIONAL WEATHER ROUNDUP
NATIONAL WEATHER SERVICE LOUISVILLE KY
400 AM EDT WED JUL 23 2014

NOTE "FAIR" INDICATES FEW OR NO CLOUDS BELOW 12,000 FEET
WITH NO SIGNIFICANT WEATHER AND/OR OBSTRUCTIONS TO VISIBILITY.

KYZ001>023-026-027-061>063-070>075-230900-
WESTERN AND SOUTH CENTRAL KENTUCKY

CITY           SKY/WX    TMP DP  RH WIND       PRES   REMARKS
PADUCAH        CLEAR     72  69  90 CALM      30.03F FOG
HENDERSON      CLEAR     70  66  88 S5        30.02F
OWENSBORO      CLEAR     73  70  91 CALM      30.03F
HOPKINSVILLE   CLEAR     74  74 100 SW5       30.05F
BOWLING GREEN  CLEAR     75  70  84 W3        30.05S
GLASGOW        CLEAR     71  71  99 CALM      30.05F
$$

KYZ024-025-028>034-038-045-046-053-230900-
NORTH CENTRAL KENTUCKY

CITY           SKY/WX    TMP DP  RH WIND       PRES   REMARKS
LOUISVILLE/SDF MOCLDY    79  70  74 SW5       30.02F
LOUISVILLE/LOU PTCLDY    77  71  82 CALM      30.03F
FORT KNOX      MOCLDY    72  70  93 S5        30.02F
$$

KYZ035>037-039>044-047>052-055>060-089>105-230900-
NORTHEAST KENTUCKY

CITY           SKY/WX    TMP DP  RH WIND       PRES   REMARKS
LEXINGTON      CLEAR     76  70  82 SW7       30.06S
COVINGTON      PTCLDY    74  69  85 SW5       30.02F
FRANKFORT      MOCLDY    74  71  91 SW5       30.03S
$$

KYZ054-064>069-076>088-106>120-230900-
SOUTHEAST KENTUCKY

CITY           SKY/WX    TMP DP  RH WIND       PRES   REMARKS
JACKSON        PTCLDY    73  70  90 CALM      30.08F
LONDON         PTCLDY    73  70  90 CALM      30.09S
SOMERSET       CLEAR     72  72 100 CALM      30.08S FOG
MIDDLESBORO    PTCLDY    68  67  99 CALM      30.10F
MONTICELLO     MOSUNNY   71  71 100 CALM      30.09S FOG
$$




USA.gov is the U.S. government's official web portal to all federal, state and local government web resources and services.